Location: Newark
(43.0072°N, 73.8511°W)
Time: 09:40:25
(UTC+00:00)

ISS - Visible Passes

Search period start: 28 January 2020 00:00
Search period end: 07 February 2020 00:00
Orbit: 416 x 423 km, 51.6° (Epoch: 28 January)

Date Brightness Start Highest point End Pass type
(mag) Time Alt. Az. Time Alt. Az. Time Alt. Az.
28 Jan -0.7 00:30:38 10° NW 00:31:06 12° NW 00:31:06 12° NW visible
28 Jan -1.8 23:42:52 10° NW 23:45:22 19° N 23:45:30 18° N visible
29 Jan -1.8 22:55:01 10° NW 22:57:34 19° N 22:59:53 11° NE visible
30 Jan -0.7 00:32:26 10° NW 00:32:51 12° NW 00:32:51 12° NW visible
30 Jan -1.9 23:44:50 10° NW 23:47:14 20° N 23:47:14 20° N visible
31 Jan -1.8 22:57:08 10° NW 22:59:38 19° N 23:01:39 12° NE visible
01 Feb -0.9 00:33:57 10° NW 00:34:37 14° NW 00:34:37 14° NW visible
01 Feb -2.4 23:46:25 10° NW 23:49:04 27° N 23:49:04 27° N visible
02 Feb -2.2 22:58:50 10° NW 23:01:37 23° NNE 23:03:35 15° ENE visible
03 Feb -1.2 00:35:25 10° NW 00:36:33 19° NW 00:36:33 19° NW visible
03 Feb -3.5 23:47:50 10° NW 23:51:08 52° NNE 23:51:08 52° NNE visible
04 Feb -3.0 23:00:16 10° NW 23:03:27 36° NNE 23:05:50 15° E visible
05 Feb -1.4 00:37:07 10° WNW 00:38:49 24° W 00:38:49 24° W visible
05 Feb -3.4 23:49:20 10° WNW 23:52:41 62° SW 23:53:39 40° SSE visible
06 Feb -3.8 23:01:40 10° NW 23:05:03 81° NNE 23:08:26 10° ESE visible
